[[{"header":{"parameterUnit":"m.s-1","parameterCategory":1,"la1":30.2991,"la2":30.254,"lo1":-89.0895,"lo2":-89.0444,"dy":0.0017,"dx":0.0017,"nx":28,"ny":28,"refTime":"2024-10-08T09:00:00:Z","depth":0,"parameterNumber":2,"parameterNumberName":"U-component_of_WINDS"},"data":[0,0,0,0,0,0,0,0,0,0,0,0,0,0,0,0,0,0,0,0,0,0,0,0,0,0,0,0,0,0,0,0,0,0,0,0,0,0,0,0,0,0,0,0,0,0,0,0,0,0,0,0,0,0,0,0,0,0,-0.836,-0.836,0,-0.8405,-0.8406,-0.8406,-0.8398,-0.8397,-0.8396,-0.8396,-0.8443,-0.8445,-0.8447,0,0,0,0,0,0,0,0,0,0,0,0,0,-0.8266,-0.8267,-0.836,-0.836,-0.8361,-0.8405,-0.8406,-0.8406,-0.8398,-0.8397,-0.8396,-0.8395,-0.8443,-0.8445,-0.8448,0,0,0,0,0,0,0,0,0,0,0,0,0,-0.8308,-0.8268,-0.836,-0.8362,-0.8363,-0.8405,-0.8406,-0.8407,-0.8398,-0.8397,-0.8396,-0.8395,-0.8442,-0.8445,-0.8448,-0.8491,0,0,-0.8457,-0.8459,0,0,0,0,0,0,0,0,-0.8306,-0.8312,-0.8361,-0.8362,-0.8363,-0.8395,-0.839,-0.8435,-0.8399,-0.8385,-0.8396,-0.8394,-0.8428,-0.8432,-0.8444,-0.8493,-0.8495,-0.8457,-0.8459,-0.8461,-0.8461,0,0,0,0,0,0,0,-0.8303,-0.831,-0.8378,-0.8362,-0.8363,-0.8361,-0.8366,-0.8399,-0.8413,-0.8386,-0.8385,-0.8391,-0.8428,-0.8441,-0.8445,-0.8496,-0.8457,-0.846,-0.8462,-0.8463,-0.8584,-0.8585,0,0,0,0,0,0,-0.8299,-0.8308,-0.8376,-0.8379,-0.8331,-0.8364,-0.8369,-0.8386,-0.8412,-0.8415,-0.8392,-0.839,-0.8436,-0.8441,-0.8446,-0.8499,-0.8461,-0.8463,-0.8465,-0.8582,-0.8584,-0.8586,0,0,0,0,0,0,-0.8297,-0.8305,-0.8374,-0.8343,-0.8352,-0.8367,-0.8385,-0.8387,-0.8399,-0.8417,-0.842,-0.8402,-0.8435,-0.8442,-0.848,-0.8501,-0.8465,-0.8468,-0.8581,-0.8583,-0.8585,-0.8605,0,0,0,0,0,0,-0.8295,-0.8305,-0.8321,-0.8344,-0.8353,-0.8407,-0.8387,-0.8389,-0.8405,-0.8403,-0.8427,-0.843,-0.8435,-0.8476,-0.8483,-0.8504,-0.847,-0.8579,-0.8582,-0.8584,-0.8603,-0.8608,-0.8612,0,0,0,0,0,-0.8291,-0.8325,-0.8322,-0.8331,-0.8374,-0.8409,-0.8414,-0.8419,-0.8406,-0.8423,-0.8434,-0.8429,-0.8497,-0.848,-0.8488,-0.851,-0.8578,-0.8581,-0.8584,-0.8601,-0.8607,-0.8612,0,0,0,0,0,0,-0.8306,-0.8328,-0.8325,-0.8367,-0.8386,-0.8407,-0.8429,-0.8425,-0.8448,-0.8446,-0.8451,-0.8457,-0.8496,-0.8506,-0.8487,-0.8554,-0.8536,-0.8541,-0.8546,-0.8551,-0.8556,-0.8553,-0.8473,0,0,0,0,0,-0.8314,-0.8339,-0.8358,-0.8393,-0.8403,-0.8414,-0.8429,-0.8431,-0.8451,-0.8459,-0.8473,-0.8492,-0.8518,-0.8535,-0.856,-0.8604,-0.8609,-0.8623,-0.8628,-0.8632,-0.8636,-0.8661,-0.8668,-0.8596,-0.8596,-0.8596,0,0,-0.8331,-0.8346,-0.8362,-0.8397,-0.8411,-0.8438,-0.8421,-0.845,-0.847,-0.8463,-0.85,-0.8511,-0.8533,-0.8574,-0.8593,-0.8585,-0.8657,-0.8636,-0.8638,-0.8641,-0.8665,-0.8672,-0.8678,-0.8598,-0.8598,-0.8597,0,0,-0.8376,-0.839,-0.8421,-0.8436,-0.8458,-0.8466,-0.8473,-0.8494,-0.8501,-0.8538,-0.8534,-0.8558,-0.8602,-0.8618,-0.8632,-0.8682,-0.8678,-0.869,-0.8714,-0.8738,-0.8744,-0.8749,-0.8768,-0.8775,-0.8694,-0.8694,-0.8694,0,-0.8395,-0.8435,-0.8438,-0.8467,-0.8483,-0.8477,-0.8509,-0.8524,-0.8553,-0.8564,-0.8554,-0.8609,-0.8623,-0.8669,-0.8681,-0.8692,-0.8701,-0.8688,-0.8743,-0.8748,-0.8753,-0.8771,-0.8778,-0.8695,-0.8695,-0.8695,-0.8695,0,-0.8457,-0.8484,-0.8507,-0.8535,-0.8553,-0.8584,-0.8592,-0.8609,-0.8609,-0.8618,-0.8655,-0.8672,-0.87,-0.8711,-0.8712,-0.8757,-0.8751,-0.8741,-0.8724,-0.8761,-0.8778,-0.8785,-0.8697,-0.8697,-0.8696,-0.8696,0,0,-0.8514,-0.8543,-0.8551,-0.8564,-0.8588,-0.8609,-0.8639,-0.8667,-0.8682,-0.8702,-0.8728,-0.8765,-0.8756,-0.8772,-0.8774,-0.8795,-0.8835,-0.8783,-0.8784,-0.8793,-0.8886,-0.8894,-0.8902,-0.8832,-0.8833,-0.8834,-0.8885,0,-0.8562,-0.8616,-0.8619,-0.8668,-0.8694,-0.8688,-0.8714,-0.8732,-0.874,-0.8763,-0.8772,-0.8799,-0.8785,-0.8795,-0.8815,-0.8826,-0.8854,-0.8822,-0.8857,-0.8858,-0.8853,-0.8911,-0.8919,-0.8967,-0.8891,-0.8893,-0.8893,0,-0.8626,-0.8648,-0.8699,-0.8719,-0.873,-0.8754,-0.8779,-0.8801,-0.882,-0.8825,-0.8842,-0.8841,-0.8872,-0.8852,-0.8895,-0.8873,-0.8888,-0.8895,-0.8897,-0.8902,-0.8879,-0.8919,-0.8982,-0.8989,-0.8904,-0.8903,-0.8902,0,-0.8664,-0.8706,-0.8742,-0.8753,-0.8777,-0.8794,-0.8804,-0.8823,-0.8839,-0.886,-0.8871,-0.8896,-0.891,-0.893,-0.8936,-0.892,-0.8979,-0.8959,-0.8985,-0.8985,-0.8999,-0.8998,-0.9067,-0.9005,-0.9005,-0.9005,-0.9005,0,-0.8719,-0.875,-0.8759,-0.8782,-0.8817,-0.8821,-0.8855,-0.8865,-0.8881,-0.8906,-0.8902,-0.8925,-0.893,-0.8954,-0.8959,-0.8995,-0.9001,-0.9006,-0.9007,-0.9007,-0.9007,-0.9018,-0.9015,-0.9007,-0.9006,-0.9006,-0.9006,0,-0.8768,-0.8775,-0.8814,-0.8833,-0.8839,-0.8864,-0.8881,-0.8902,-0.8909,-0.894,-0.8947,-0.8959,-0.8987,-0.8994,-0.9028,-0.9031,-0.9073,-0.907,-0.9067,-0.9067,-0.9093,-0.9091,-0.9172,-0.9183,-0.9113,-0.9114,-0.9114,0,-0.8803,-0.8827,-0.8849,-0.8865,-0.8876,-0.8902,-0.8918,-0.8922,-0.8939,-0.8963,-0.8982,-0.9009,-0.9031,-0.9076,-0.9088,-0.9113,-0.9112,-0.9139,-0.9116,-0.9116,-0.9114,-0.9113,-0.9116,-0.9144,-0.9144,-0.9145,-0.9145,0,-0.8865,-0.8867,-0.8891,-0.8916,-0.8935,-0.8955,-0.8973,-0.8987,-0.8993,-0.9012,-0.9041,-0.9058,-0.9092,-0.9119,-0.9145,-0.9156,-0.9153,-0.9152,-0.916,-0.9161,-0.9158,-0.9161,-0.908,-0.9151,-0.915,-0.915,-0.915,-0.9149,-0.891,-0.8931,-0.895,-0.8976,-0.899,-0.9008,-0.9029,-0.9038,-0.9062,-0.909,-0.909,-0.9122,-0.914,-0.9174,-0.9187,-0.9211,-0.9203,-0.9214,-0.9217,-0.922,-0.9223,-0.9153,-0.9216,-0.9216,-0.9215,-0.9215,-0.9215,0,-0.8973,-0.8984,-0.9008,-0.9034,-0.9055,-0.9048,-0.9068,-0.9086,-0.9114,-0.9131,-0.9153,-0.9186,-0.9212,-0.9225,-0.9251,-0.9269,-0.9268,-0.9276,-0.9275,-0.9278,-0.9228,-0.9219,-0.9276,-0.9276,-0.9276,-0.9276,-0.9276,-0.9276,-0.9008,-0.9044,-0.9048,-0.9092,-0.9103,-0.9133,-0.9145,-0.9162,-0.9176,-0.9212,-0.9234,-0.9242,-0.9258,-0.9285,-0.9309,-0.9312,-0.9323,-0.9332,-0.9334,-0.9288,-0.9281,-0.9276,-0.9268,-0.9334,-0.9334,-0.9383,-0.9383,-0.9384]},{"header":{"parameterUnit":"m.s-1","parameterCategory":1,"la1":30.2991,"la2":30.254,"lo1":-89.0895,"lo2":-89.0444,"dy":0.0017,"dx":0.0017,"nx":28,"ny":28,"refTime":"2024-10-08T09:00:00:Z","depth":0,"parameterNumber":3,"parameterNumberName":"V-component_of_WINDS"},"data":[0,0,0,0,0,0,0,0,0,0,0,0,0,0,0,0,0,0,0,0,0,0,0,0,0,0,0,0,0,0,0,0,0,0,0,0,0,0,0,0,0,0,0,0,0,0,0,0,0,0,0,0,0,0,0,0,0,0,-4.9621,-4.9621,0,-4.9669,-4.967,-4.967,-4.9621,-4.9619,-4.9617,-4.9615,-4.966,-4.9663,-4.9666,0,0,0,0,0,0,0,0,0,0,0,0,0,-4.9481,-4.9484,-4.9621,-4.9621,-4.9622,-4.9669,-4.967,-4.9671,-4.9621,-4.9619,-4.9617,-4.9615,-4.9659,-4.9663,-4.9666,0,0,0,0,0,0,0,0,0,0,0,0,0,-4.9537,-4.9485,-4.9621,-4.9603,-4.9602,-4.9669,-4.967,-4.9671,-4.9622,-4.9619,-4.9616,-4.9613,-4.9658,-4.9662,-4.9667,-4.9752,0,0,-4.968,-4.9682,0,0,0,0,0,0,0,0,-4.9533,-4.9542,-4.9605,-4.9605,-4.9604,-4.9636,-4.9637,-4.9698,-4.9623,-4.9614,-4.9615,-4.9612,-4.9654,-4.9659,-4.9674,-4.9754,-4.9755,-4.9681,-4.9683,-4.9685,-4.9687,0,0,0,0,0,0,0,-4.953,-4.9539,-4.964,-4.9606,-4.9605,-4.9592,-4.9596,-4.9648,-4.9649,-4.9615,-4.9611,-4.9618,-4.9653,-4.967,-4.9675,-4.9756,-4.9681,-4.9684,-4.9687,-4.9689,-4.9908,-4.9912,0,0,0,0,0,0,-4.9528,-4.9537,-4.9638,-4.9641,-4.9561,-4.9596,-4.9602,-4.9629,-4.9649,-4.9649,-4.962,-4.9616,-4.9664,-4.9669,-4.9676,-4.9778,-4.9685,-4.9689,-4.9692,-4.9905,-4.9909,-4.9913,0,0,0,0,0,0,-4.9526,-4.9538,-4.9636,-4.9588,-4.96,-4.9602,-4.9632,-4.9631,-4.9648,-4.9653,-4.9653,-4.9638,-4.9662,-4.967,-4.9734,-4.9778,-4.9691,-4.9695,-4.9902,-4.9907,-4.9911,-4.9981,0,0,0,0,0,0,-4.9522,-4.9537,-4.9571,-4.9589,-4.9602,-4.9695,-4.9635,-4.9634,-4.9656,-4.965,-4.9669,-4.9669,-4.966,-4.9727,-4.9738,-4.9783,-4.9699,-4.9898,-4.9904,-4.9909,-4.9975,-4.9988,-4.9999,0,0,0,0,0,-4.9517,-4.9587,-4.9573,-4.9585,-4.9644,-4.9697,-4.9705,-4.9694,-4.966,-4.9693,-4.9697,-4.9669,-4.9772,-4.9734,-4.9746,-4.9793,-4.9895,-4.9902,-4.9909,-4.9969,-4.9985,-4.9998,0,0,0,0,0,0,-4.9571,-4.9589,-4.9573,-4.9652,-4.9674,-4.9689,-4.973,-4.9711,-4.9741,-4.9734,-4.9718,-4.9722,-4.979,-4.9798,-4.9756,-4.9876,-4.9827,-4.9837,-4.9869,-4.9884,-4.9896,-4.9893,-4.9703,0,0,0,0,0,-4.9593,-4.9636,-4.9648,-4.9716,-4.9729,-4.9728,-4.975,-4.974,-4.9762,-4.977,-4.9778,-4.9799,-4.9836,-4.986,-4.9894,-4.9975,-4.9979,-5.0013,-5.0025,-5.0035,-5.0044,-5.0088,-5.0103,-4.9936,-4.9936,-4.9936,0,0,-4.9637,-4.9652,-4.968,-4.9728,-4.9744,-4.9788,-4.9736,-4.9784,-4.9816,-4.9777,-4.9839,-4.9845,-4.9867,-4.994,-4.9973,-4.9948,-5.0091,-5.0044,-5.0052,-5.0055,-5.0097,-5.0113,-5.0127,-4.9941,-4.994,-4.9939,0,0,-4.974,-4.9756,-4.9815,-4.9832,-4.9858,-4.9857,-4.9871,-4.989,-4.9894,-4.9956,-4.9928,-4.9964,-5.0028,-5.0045,-5.0062,-5.0173,-5.0149,-5.0185,-5.0247,-5.029,-5.0303,-5.0315,-5.0355,-5.037,-5.0193,-5.0193,-5.0193,0,-4.9791,-4.9858,-4.9847,-4.9899,-4.992,-4.9889,-4.9948,-4.9965,-4.9999,-5.0014,-4.9987,-5.0068,-5.008,-5.0157,-5.0184,-5.0199,-5.0214,-5.0183,-5.0303,-5.0314,-5.0325,-5.0363,-5.0378,-5.0198,-5.0197,-5.0197,-5.0196,0,-4.992,-4.9967,-5.0011,-5.0048,-5.0075,-5.013,-5.0126,-5.0154,-5.0142,-5.0143,-5.0207,-5.0221,-5.0258,-5.0275,-5.0262,-5.0351,-5.0335,-5.0305,-5.0256,-5.0345,-5.0381,-5.0395,-5.0204,-5.0202,-5.0201,-5.02,0,0,-5.0058,-5.009,-5.0106,-5.0123,-5.015,-5.0185,-5.0238,-5.0276,-5.0301,-5.0326,-5.037,-5.0425,-5.0398,-5.0418,-5.0407,-5.0445,-5.0533,-5.041,-5.0411,-5.0433,-5.0631,-5.0654,-5.0671,-5.0517,-5.0519,-5.0522,-5.063,0,-5.0163,-5.0258,-5.025,-5.0339,-5.0383,-5.0353,-5.04,-5.042,-5.0423,-5.0459,-5.0461,-5.0502,-5.0463,-5.0475,-5.0511,-5.0514,-5.0572,-5.0506,-5.0557,-5.0559,-5.0553,-5.069,-5.0714,-5.0815,-5.0644,-5.0646,-5.0648,0,-5.0298,-5.0331,-5.0425,-5.0446,-5.0464,-5.0506,-5.0541,-5.0576,-5.0598,-5.0597,-5.062,-5.0603,-5.0655,-5.0605,-5.0677,-5.0632,-5.0652,-5.0657,-5.0661,-5.0665,-5.0609,-5.0699,-5.0847,-5.0863,-5.0669,-5.0668,-5.0666,0,-5.0391,-5.0458,-5.0523,-5.0538,-5.0564,-5.0595,-5.0606,-5.0626,-5.065,-5.068,-5.0695,-5.073,-5.0749,-5.0775,-5.0768,-5.0731,-5.0841,-5.079,-5.0842,-5.0842,-5.0867,-5.0866,-5.1022,-5.0879,-5.0879,-5.0878,-5.0878,0,-5.0509,-5.0568,-5.0566,-5.0606,-5.0671,-5.0661,-5.0725,-5.0732,-5.0751,-5.0791,-5.0766,-5.0804,-5.0792,-5.0829,-5.0823,-5.0884,-5.0892,-5.0892,-5.089,-5.0895,-5.0895,-5.0908,-5.0901,-5.0882,-5.0881,-5.0881,-5.088,0,-5.0624,-5.0625,-5.0694,-5.0714,-5.072,-5.0767,-5.0783,-5.0821,-5.0822,-5.0874,-5.0885,-5.0887,-5.0929,-5.0925,-5.0971,-5.0967,-5.1043,-5.1032,-5.1036,-5.1034,-5.1087,-5.1082,-5.1257,-5.128,-5.1122,-5.1123,-5.1124,0,-5.07,-5.0745,-5.077,-5.0797,-5.0812,-5.0854,-5.0879,-5.087,-5.0897,-5.0926,-5.096,-5.1001,-5.1033,-5.1102,-5.1106,-5.1142,-5.1132,-5.1191,-5.1137,-5.1141,-5.1134,-5.1132,-5.1136,-5.1202,-5.1203,-5.1205,-5.1206,0,-5.0835,-5.0833,-5.0871,-5.091,-5.0941,-5.0971,-5.0997,-5.1019,-5.1013,-5.1044,-5.1088,-5.1114,-5.1163,-5.1203,-5.1237,-5.1247,-5.1226,-5.1223,-5.1237,-5.1243,-5.1244,-5.1245,-5.1066,-5.1219,-5.1218,-5.1217,-5.1216,-5.1216,-5.0933,-5.0972,-5.0997,-5.104,-5.106,-5.1086,-5.1122,-5.113,-5.1167,-5.1208,-5.1199,-5.125,-5.1271,-5.1315,-5.1328,-5.1367,-5.1345,-5.1365,-5.137,-5.1376,-5.1382,-5.1238,-5.1372,-5.1372,-5.1372,-5.1371,-5.1371,0,-5.1067,-5.1082,-5.1122,-5.1162,-5.1196,-5.1175,-5.1203,-5.1232,-5.1278,-5.13,-5.1333,-5.1384,-5.1424,-5.1432,-5.1469,-5.1498,-5.149,-5.1509,-5.1507,-5.151,-5.1399,-5.1384,-5.1515,-5.1515,-5.1515,-5.1515,-5.1515,-5.1515,-5.1141,-5.1207,-5.1209,-5.1284,-5.1298,-5.1349,-5.1367,-5.139,-5.1409,-5.1468,-5.1501,-5.1507,-5.1524,-5.1563,-5.1598,-5.1599,-5.1614,-5.1637,-5.1635,-5.1532,-5.1517,-5.1503,-5.1489,-5.164,-5.1641,-5.1742,-5.1743,-5.1744]}]]